Location: Aressy
(43.2833°N, 0.3167°W)
Time: 18:32:37
(UTC+00:00)

CZ-4 R/B - Pass Details

Date: 28 January 2021
Orbit: 531 x 599 km, 97.7° (Epoch: 03 March)

Event Time Altitude Azimuth Distance (km) Brightness Sun altitude
Rises 19:27:57 0° 197° (SSW) 2,770 5.1 -25.5°
Reaches altitude 10° 19:30:29 10° 213° (SSW) 1,865 4.4 -25.9°
Maximum altitude 19:33:40 22° 265° (W) 1,243 3.8 -26.5°
Drops below altitude 10° 19:36:50 10° 318° (NW) 1,844 4.5 -27.1°
Sets 19:39:19 0° 334° (NNW) 2,731 5.2 -27.6°
